User: anonymous   Login
Location: Unspecified
(0.0000°N, 0.0000°E)
Time: 00:15:38
(UTC+00:00)
Language:

Orbcomm A3 (FM07) - Orbit

View from above orbital plane
View from above orbital plane
View from above satellite
View from above satellite

Ground track
Ground track

The orbit data is extracted from the following two-line orbital elements,

1 25119U 97084H   17326.16012515 +.00000207 +00000-0 +11314-3 0  9998
2 25119 045.0154 198.7989 0005065 005.3376 354.7525 14.38642483043034
Epoch (UTC): 22 November 2017 03:50:34
Eccentricity: 0.0005065
inclination: 45.0154°
perigee height: 759 km
apogee height: 766 km
right ascension of ascending node: 198.7989°
argument of perigee: 5.3376°
revolutions per day: 14.38642483
mean anomaly at epoch: 354.7525°
orbit number at epoch: 4303

The dashed part of the orbit path shows where the satellite is in the earth's shadow,  

DLR